SCP
0 0 0 0 0 0 0 0 0 0 0 0 0 0 0 0 0 0 0 0 0 0 0 0 0 0 0 0 0 1 1 1 1 0 1 1 1 1 1 1 0 0 0
0 0 0 0 0 0 0 0 0 0 0 0 0 0 0 0 0 0 0 0 0 0 0 0 0 1 0 0 0 1 1 1 1 1 1 1 1 1 1 1 1 0 0
0 0 0 0 0 0 0 0 0 0 0 1 1 1 1 1 0 0 0 0 0 0 0 0 0 1 1 1 1 1 1 1 1 1 1 1 1 1 1 1 1 1 1
0 0 0 0 0 0 0 0 0 0 1 1 1 1 1 1 1 1 0 0 1 1 1 1 1 1 1 1 1 1 1 1 1 1 1 1 1 1 1 1 1 1 1
0 0 0 1 0 0 0 0 0 0 1 1 1 1 1 1 1 1 1 1 1 1 1 1 1 1 1 1 1 1 1 1 1 0 0 1 1 1 1 1 1 1 1
0 0 0 1 1 1 1 1 1 1 1 1 1 1 1 1 1 1 1 1 1 1 1 1 1 1 1 1 1 1 1 1 0 0 0 0 1 1 1 1 1 1 1
0 0 1 1 1 1 1 1 1 1 1 1 1 1 1 1 1 1 1 1 1 1 1 1 1 1 1 1 1 1 1 1 0 0 0 0 0 1 1 1 1 1 1
0 1 1 1 1 1 1 1 1 1 1 1 1 1 1 1 1 1 1 1 1 1 1 1 1 1 1 1 1 1 1 0 0 0 0 0 0 0 1 1 1 1 1
1 1 2 2 1 1 1 1 1 1 1 1 1 1 1 1 1 1 1 1 1 1 1 1 1 1 1 1 1 1 0 0 0 0 0 0 0 0 1 1 1 1 1
1 1 1 1 1 1 1 1 1 1 1 1 0 0 1 1 1 1 1 1 2 2 2 2 1 1 1 1 1 1 0 0 0 0 0 0 0 1 1 1 1 1 1
0 0 1 1 1 1 1 1 1 1 1 1 0 0 0 0 1 1 1 1 1 2 2 2 2 1 1 1 1 1 0 0 0 0 0 0 1 1 1 1 1 1 1
0 0 0 0 1 1 1 1 1 1 1 0 0 0 0 0 0 0 0 0 1 2 2 2 2 2 1 1 1 1 0 0 0 0 0 1 1 1 1 1 1 1 1
0 0 0 0 0 0 1 0 0 0 0 0 0 0 0 0 0 0 0 0 1 2 2 2 2 1 1 1 0 0 0 0 0 0 0 1 1 1 1 1 1 1 1
0 0 0 0 0 0 0 0 0 0 0 0 0 0 0 0 0 0 0 1 1 1 1 1 1 1 1 1 0 0 0 0 0 0 0 1 1 1 1 1 1 1 1
0 0 0 0 0 0 0 0 0 0 0 0 0 0 0 0 0 0 0 1 1 2 1 1 1 1 1 1 0 0 0 0 0 0 0 1 1 1 1 1 1 1 1
0 0 0 0 0 0 0 0 0 0 0 0 0 0 0 0 0 0 0 1 1 2 2 1 1 1 1 1 0 0 0 0 0 0 0 0 1 1 1 1 1 1 1
0 0 0 0 0 0 0 0 0 0 0 0 0 0 0 0 0 0 0 1 1 2 2 1 1 1 1 1 1 0 0 0 0 0 0 0 0 1 1 1 1 1 1
0 0 0 0 0 0 0 0 0 0 0 0 0 0 0 0 0 0 0 1 1 1 1 1 1 1 1 1 1 1 0 0 0 0 0 0 0 0 0 1 1 1 1
0 0 0 0 0 0 0 0 0 0 0 0 0 0 0 0 0 0 0 0 0 1 1 1 1 1 1 1 1 1 0 0 0 0 0 0 0 0 0 0 1 1 1
0 0 0 0 0 0 0 0 0 0 0 0 0 0 0 0 0 0 0 0 0 0 1 1 1 1 1 1 1 1 0 0 0 0 0 0 0 0 0 0 0 1 1
0 0 0 0 0 0 0 0 0 0 0 0 0 0 0 0 0 0 0 0 0 1 0 0 0 1 1 1 1 1 1 0 0 0 0 0 0 0 0 0 0 0 0
0 0 0 0 0 0 0 0 0 0 0 0 0 0 0 0 0 0 0 0 1 1 0 0 0 1 1 1 1 1 0 0 0 0 0 0 0 0 0 0 0 0 0
0 0 0 0 0 0 0 0 0 0 0 0 0 0 0 0 0 0 0 0 0 0 0 0 0 1 1 1 1 1 0 0 0 0 0 0 0 0 0 0 0 0 0
0 0 0 0 0 0 0 0 0 0 0 0 0 0 0 0 0 0 0 0 0 0 0 0 0 0 0 0 0 1 1 0 0 0 0 0 0 0 0 0 0 0 0
0 0 0 0 0 0 0 0 0 0 0 0 0 0 0 0 0 0 0 0 0 0 0 0 0 0 0 0 0 0 1 1 0 0 0 0 0 0 0 0 0 0 0
0 0 0 0 0 0 0 0 0 0 0 0 0 0 0 0 0 0 0 0 0 0 0 0 0 0 0 0 0 0 1 1 0 0 0 0 0 0 0 0 0 0 0
Wind_Speed
4 8 16 17 16 15 15 14 11 9 8 7 7 7 6 7 7 7 8 7 6 5 5 6 5 5 5 6 7 7 8 9 7 5 4 4 6 6 5 3 2 3 6
6 8 14 15 15 14 13 11 10 9 8 7 6 6 6 7 7 7 8 8 8 7 7 7 6 6 5 5 4 5 8 8 6 4 2 1 3 4 3 3 2 1 3
6 7 9 13 13 13 12 11 10 8 9 8 6 5 6 7 7 7 7 8 9 9 9 8 7 7 6 5 4 5 8 8 6 4 1 1 1 3 3 3 3 3 2
8 7 7 12 13 13 13 12 11 9 8 8 6 5 4 5 6 6 7 9 9 10 10 9 8 8 7 7 6 5 6 5 4 3 1 3 3 5 4 4 4 4 3
7 7 10 15 15 15 15 14 12 11 9 9 8 6 5 5 6 6 7 8 9 10 10 10 10 9 8 7 6 6 4 3 2 1 2 3 3 4 6 4 3 4 4
6 6 10 16 17 16 16 16 14 13 11 10 9 8 6 5 5 5 7 7 8 9 10 11 11 10 9 8 7 6 5 3 1 1 1 4 4 5 5 4 4 4 3
6 5 8 16 17 17 16 16 15 14 12 11 10 9 8 6 5 4 5 7 8 10 11 12 11 10 9 8 7 5 4 2 1 2 2 3 4 6 6 6 5 3 1
7 7 8 14 16 16 16 15 14 14 14 13 11 10 8 7 6 6 5 7 9 10 12 13 12 11 10 9 7 5 3 2 0 1 2 3 6 7 7 7 6 5 3
3 3 4 6 9 12 13 13 13 13 13 13 12 11 9 8 8 6 5 7 9 10 11 13 13 12 11 10 8 6 3 2 1 1 2 2 6 7 8 9 8 7 5
7 4 1 1 3 5 7 9 10 10 11 10 8 7 6 5 4 3 4 6 8 10 11 12 13 13 12 10 9 6 4 3 1 2 1 4 6 6 7 8 9 8 6
8 6 3 3 4 3 4 5 7 7 8 7 6 6 5 3 3 3 5 8 8 10 11 12 13 13 11 9 9 8 5 2 2 2 2 6 7 6 8 10 10 9 8
6 7 7 3 3 4 3 3 3 3 4 4 4 4 3 3 4 5 6 9 10 9 10 11 12 12 8 4 4 5 3 3 3 3 3 9 8 6 8 11 12 11 10
4 5 7 7 2 3 3 3 2 2 2 3 4 4 4 3 3 4 3 4 4 5 4 5 6 5 5 4 3 3 4 3 2 2 4 9 10 8 8 11 14 13 11
4 6 6 7 6 3 3 1 2 2 3 3 4 4 3 3 3 3 3 3 3 3 3 3 3 4 6 6 5 5 5 4 3 3 4 8 9 10 10 12 14 15 14
3 4 5 5 6 6 5 3 1 2 3 3 3 3 3 2 3 3 3 3 3 3 4 3 4 4 5 6 6 6 6 5 5 3 3 7 9 10 11 12 15 16 16
3 4 5 6 5 5 4 3 2 1 2 2 2 3 3 3 2 2 3 3 4 5 5 5 5 5 5 5 6 6 7 6 6 5 4 5 9 10 12 14 15 17 18
2 3 5 4 5 5 4 3 3 2 1 1 2 3 3 2 2 2 2 2 2 3 4 4 4 4 4 5 7 6 6 6 6 6 5 4 5 9 11 13 16 17 18
3 4 5 5 6 5 4 3 2 3 2 1 1 1 2 2 2 2 2 3 2 1 2 3 3 4 5 6 6 5 6 5 7 7 5 5 4 4 7 11 13 16 19
4 4 5 6 6 5 4 3 3 3 2 1 1 1 1 1 2 2 1 2 2 1 1 2 3 4 5 7 7 6 5 5 6 6 6 6 6 5 4 8 10 10 13
5 5 5 5 6 5 3 3 3 3 3 2 2 3 3 2 1 1 1 2 1 1 2 2 3 4 5 7 6 6 6 6 5 5 6 6 6 7 7 6 6 6 10
6 6 5 5 6 4 3 2 3 3 2 2 3 4 4 3 3 2 2 3 2 1 2 2 2 3 4 2 4 6 6 6 8 8 6 6 8 8 7 7 6 4 6
4 3 4 5 5 3 1 1 1 2 2 2 3 3 4 4 5 4 3 3 2 2 2 1 2 2 3 4 4 3 5 7 8 8 9 9 8 6 7 8 8 7 6
4 2 2 3 4 4 4 3 3 3 3 3 3 3 4 4 3 3 4 4 3 2 2 2 1 2 3 3 6 5 4 5 3 4 8 9 9 7 7 7 8 7 7
5 3 1 2 3 3 4 4 3 1 1 2 3 4 5 4 4 4 4 3 2 1 1 2 3 2 3 3 3 5 8 6 4 5 3 6 8 9 8 7 8 9 7
6 5 3 0 1 2 3 3 2 2 2 2 2 4 5 5 4 3 3 3 2 1 1 1 2 2 2 3 3 3 3 3 6 5 3 2 4 6 7 8 8 8 8
5 4 3 2 3 2 1 2 2 3 4 4 4 4 4 4 4 4 2 1 1 2 2 2 3 3 3 3 4 4 2 2 4 5 9 9 8 3 3 6 7 7 7
Wind_Direction
207 187 181 184 185 183 181 179 185 186 179 173 172 177 182 181 184 186 188 192 190 185 168 151 145 139 140 154 153 146 133 121 105 91 76 81 92 92 91 91 132 184 181
164 174 180 185 187 186 184 184 185 181 179 173 172 175 186 184 184 191 195 198 197 191 178 162 156 147 142 148 152 161 145 125 124 117 96 50 85 85 80 75 87 133 186
144 163 176 185 187 187 185 185 175 181 186 174 170 172 180 185 185 194 199 203 200 192 185 179 174 150 148 152 144 148 149 148 146 124 162 212 155 118 105 98 103 112 146
155 161 166 181 185 187 187 186 181 185 184 175 176 173 170 179 190 199 204 204 202 197 193 186 178 155 155 158 160 156 161 158 142 114 100 172 175 151 135 121 116 105 93
164 165 171 178 182 187 189 190 189 191 189 185 187 190 191 190 191 203 213 208 205 205 199 185 173 166 165 163 161 159 161 162 142 132 133 143 161 156 147 137 105 87 86
178 170 174 178 182 187 192 194 192 194 192 190 191 191 188 188 193 209 213 213 209 206 199 186 178 177 173 169 163 163 168 183 178 300 225 176 166 163 161 162 125 101 87
189 180 176 181 184 189 194 197 196 197 198 196 192 192 195 196 204 224 230 210 203 203 198 191 190 185 181 177 174 167 171 198 198 282 274 208 186 175 184 171 142 131 151
175 172 174 185 187 190 196 200 200 199 203 206 200 199 203 205 210 221 237 219 206 206 200 196 197 196 185 184 183 172 182 215 187 286 248 201 203 197 203 181 157 157 172
73 129 170 184 188 191 197 203 204 204 206 209 211 210 213 217 223 221 240 228 210 215 212 207 204 202 189 186 181 180 200 226 219 287 230 200 219 217 214 185 163 161 158
43 49 357 287 220 190 190 202 206 208 207 210 215 223 232 235 233 231 258 244 221 221 220 213 209 204 194 187 186 190 205 232 232 264 243 209 210 221 214 179 169 167 165
28 21 7 242 228 221 195 192 195 204 204 203 206 214 224 222 230 252 263 257 244 230 219 211 208 201 191 181 187 199 202 217 220 231 242 236 212 219 220 191 192 186 184
16 360 359 338 239 214 204 193 187 187 187 191 198 207 211 218 227 239 253 262 252 234 215 207 203 194 179 169 185 204 211 228 222 217 225 227 217 226 237 209 197 195 197
12 6 359 351 332 215 196 180 179 171 182 200 214 217 220 231 239 248 256 262 244 228 207 200 200 183 167 177 199 217 222 233 233 236 227 213 204 214 241 225 197 198 207
21 10 7 6 15 54 124 139 178 177 196 209 218 220 216 238 255 255 250 244 207 195 199 190 182 175 176 192 203 211 225 231 224 217 224 220 205 207 228 240 221 212 213
25 11 12 25 38 53 72 80 126 199 211 216 218 215 195 207 252 270 260 242 217 188 192 194 187 184 190 204 212 210 217 225 230 223 204 216 214 212 222 239 240 221 212
24 7 4 27 39 54 56 50 39 178 208 207 210 217 192 188 215 247 271 241 224 203 195 188 191 192 201 209 222 221 222 221 218 212 198 208 216 218 227 237 236 216 208
39 8 8 11 26 34 35 32 27 21 43 229 221 221 242 258 261 256 268 268 250 216 200 191 195 194 207 213 225 226 231 224 216 217 204 199 208 218 222 234 236 218 216
63 24 10 10 16 13 9 5 356 355 4 335 272 240 256 309 310 275 265 260 260 210 203 215 212 217 218 220 225 228 231 224 223 216 207 207 203 209 221 225 237 228 219
85 43 17 12 11 3 355 335 330 328 307 289 308 303 298 326 11 9 326 284 296 294 248 236 224 218 236 239 236 233 232 224 228 221 215 216 210 206 214 226 229 238 233
69 43 17 3 4 357 354 351 340 315 304 310 295 276 273 270 305 325 335 343 356 317 286 271 254 232 233 244 244 244 240 236 237 245 238 229 220 214 212 214 227 241 245
62 34 18 7 355 354 360 4 345 324 324 321 307 298 296 306 319 318 302 287 287 271 273 273 261 263 261 244 254 261 255 245 241 236 232 234 231 223 212 210 209 213 238
94 47 16 11 2 3 346 300 263 294 322 337 344 353 336 305 293 295 304 308 315 314 306 280 212 221 229 208 243 273 272 256 234 233 230 230 231 225 218 217 212 203 203
109 81 21 6 14 21 18 5 2 358 350 355 352 346 342 337 328 308 288 283 299 335 343 345 307 280 276 231 217 236 253 262 302 246 234 232 229 222 222 217 216 211 198
155 170 152 19 16 20 30 37 26 355 311 306 306 316 323 341 351 350 340 328 301 330 339 331 333 308 296 292 272 244 249 231 247 280 298 276 252 240 231 224 217 216 209
161 181 193 208 337 6 22 30 17 323 272 280 294 317 320 321 332 342 351 348 317 267 244 272 302 299 271 274 274 279 284 256 242 253 263 318 313 280 266 247 231 217 210
168 197 208 214 244 256 300 323 325 292 287 299 308 317 313 306 305 311 322 317 255 258 260 251 244 244 241 241 260 272 263 279 274 256 246 228 227 215 257 275 262 235 207